FW2418 Weather Reports


time (UTC)temp
F
wind
direction
speed
knots
gust
knots
rain 1hr
in
rain 24hr
in
rain mn
in
humidity
%
barometer
mb
20260831144705 87 40 0.0 3.5 0.00 0.00 0.00 81 1015.7
20260831143704 87 26 2.6 3.5 0.00 0.00 0.00 80 1015.7
20260831142703 86 304 0.0 0.9 0.00 0.00 0.00 85 1015.4
20260831141703 86 315 0.0 1.7 0.00 0.00 0.00 85 1015.4
20260831140702 86 315 0.9 2.6 0.00 0.00 0.00 86 1015.4
20260831135630 85 311 0.9 2.6 0.00 0.00 0.00 86 1015.4
20260831134629 85 41 0.9 1.7 0.00 0.00 0.00 88 1015.4
20260831133628 84 63 0.9 1.7 0.00 0.00 0.00 89 1015.4
20260831132556 83 15 0.9 2.6 0.00 0.00 0.00 91 1015.4
20260831131554 82 133 0.9 2.6 0.00 0.00 0.00 93 1015.0
20260831130553 82 23 1.7 2.6 0.00 0.00 0.00 93 1015.0
20260831125552 81 332 0.0 2.6 0.00 0.00 0.00 95 1015.0
20260831124551 79 33 0.9 2.6 0.00 0.00 0.00 96 1015.0
20260831123551 78 25 1.7 2.6 0.00 0.00 0.00 99 1015.0
20260831122550 78 54 0.9 0.9 0.00 0.00 0.00 100 1015.0
20260831121549 77 11 0.0 0.9 0.00 0.00 0.00 100 1014.7
20260831120520 76 11 0.0 0.9 0.00 0.00 0.00 100 1014.7
20260831114619 74 10 0.0 0.0 0.00 0.00 0.00 99 1014.7
20260831113619 74 10 0.0 0.0 0.00 0.00 0.00 99 1014.4
20260831112618 74 10 0.0 0.0 0.00 0.00 0.00 99 1014.4
20260831111617 74 11 0.0 0.0 0.00 0.00 0.00 99 1014.4
20260831110616 74 11 0.0 0.0 0.00 0.00 0.00 99 1014.4
20260831105616 74 11 0.0 0.0 0.00 0.00 0.00 99 1014.0
20260831104615 74 10 0.0 0.0 0.00 0.00 0.00 99 1014.0
20260831103614 74 11 0.0 0.0 0.00 0.00 0.00 99 1013.7
20260831102613 74 11 0.0 0.0 0.00 0.00 0.00 99 1013.7
20260831101541 74 10 0.0 0.0 0.00 0.00 0.00 99 1013.7
20260831100540 74 11 0.0 0.0 0.00 0.00 0.00 99 1013.7
20260831095539 74 10 0.0 0.0 0.00 0.00 0.00 99 1013.7
20260831094539 74 10 0.0 0.0 0.00 0.00 0.00 99 1013.7
20260831093538 74 11 0.0 0.0 0.00 0.00 0.00 99 1013.3
20260831092537 74 11 0.0 0.0 0.00 0.00 0.00 99 1013.7
20260831091536 74 11 0.0 0.0 0.00 0.00 0.00 99 1013.7
20260831090535 74 10 0.0 0.0 0.00 0.00 0.00 99 1013.7
20260831085504 74 11 0.0 0.0 0.00 0.00 0.00 99 1013.3
20260831084503 74 10 0.0 0.0 0.00 0.00 0.00 99 1013.7
20260831083430 74 11 0.0 0.0 0.00 0.00 0.00 99 1013.7
20260831082430 74 10 0.0 0.0 0.00 0.00 0.00 99 1013.7
20260831081429 74 11 0.0 0.0 0.00 0.00 0.00 98 1013.7
20260831080428 74 10 0.0 0.0 0.00 0.00 0.00 98 1013.7
20260831075427 74 11 0.0 0.0 0.00 0.00 0.00 98 1014.0
20260831074426 74 10 0.0 0.0 0.00 0.00 0.00 98 1014.0
20260831073252 74 11 0.0 0.0 0.00 0.00 0.00 98 1014.0
20260831072252 75 10 0.0 0.0 0.00 0.00 0.00 98 1014.0
20260831071251 75 10 0.0 0.0 0.00 0.00 0.00 98 1014.0
20260831070219 75 10 0.0 0.0 0.00 0.00 0.00 98 1014.0
20260831065218 75 10 0.0 0.0 0.00 0.00 0.00 98 1014.4
20260831064043 75 10 0.0 0.0 0.00 0.00 0.00 98 1014.4
20260831063043 76 11 0.0 0.0 0.00 0.00 0.00 98 1014.4
20260831062042 75 11 0.0 0.0 0.00 0.00 0.00 98 1014.4
20260831061010 75 11 0.0 0.0 0.00 0.00 0.00 98 1014.4
20260831060009 76 11 0.0 0.0 0.00 0.00 0.00 98 1014.7
20260831055009 76 10 0.0 0.0 0.00 0.00 0.00 98 1014.7
20260831054008 76 11 0.0 0.0 0.00 0.00 0.00 98 1014.7
20260831052936 76 11 0.0 0.0 0.00 0.00 0.00 98 1014.7
20260831051935 76 11 0.0 0.0 0.00 0.00 0.00 98 1014.7
20260831050934 76 10 0.0 0.0 0.00 0.00 0.00 98 1014.7
20260831045934 76 10 0.0 0.0 0.00 0.00 0.00 98 1014.7
20260831044933 76 11 0.0 0.0 0.00 0.00 0.00 97 1014.7
20260831043932 77 10 0.0 0.0 0.00 0.00 0.00 97 1014.7
20260831042931 77 10 0.0 0.0 0.00 0.00 0.00 97 1014.7
20260831041931 77 10 0.0 0.0 0.00 0.00 0.00 97 1014.7
20260831040930 77 10 0.0 0.0 0.00 0.00 0.00 97 1014.7
20260831035929 77 10 0.0 0.0 0.00 0.00 0.00 96 1014.7
20260831034928 78 11 0.0 0.0 0.00 0.00 0.00 96 1014.7
20260831033927 78 10 0.0 0.9 0.00 0.00 0.00 96 1014.7
20260831032926 78 10 0.0 0.9 0.00 0.00 0.00 96 1014.7
20260831031925 78 11 0.9 0.9 0.00 0.00 0.00 96 1015.1
20260831030925 78 10 0.0 0.0 0.00 0.00 0.00 96 1015.1
20260831025822 79 10 0.0 0.0 0.00 0.00 0.00 95 1015.1
20260831024821 79 10 0.0 0.0 0.00 0.00 0.00 95 1015.1
20260831023820 79 10 0.0 0.0 0.00 0.00 0.00 95 1015.1
20260831022820 80 11 0.0 0.0 0.00 0.00 0.00 94 1015.1
20260831021819 80 11 0.0 0.9 0.00 0.00 0.00 94 1015.1
20260831020818 80 23 0.9 1.7 0.00 0.00 0.00 93 1015.1
20260831015817 80 15 0.0 0.9 0.00 0.00 0.00 93 1015.0
20260831014817 80 32 0.0 0.9 0.00 0.00 0.00 93 1015.0
20260831013816 81 32 0.0 0.9 0.00 0.00 0.00 92 1015.0
20260831012815 81 34 0.0 0.9 0.00 0.00 0.00 91 1015.0
20260831011744 81 34 0.0 0.9 0.00 0.00 0.00 91 1015.0
20260831010742 81 36 0.9 0.9 0.00 0.00 0.00 91 1015.0
20260831005742 82 113 0.9 0.9 0.00 0.00 0.00 90 1015.0
20260831004741 82 113 0.0 0.9 0.00 0.00 0.00 90 1015.0
20260831003740 82 82 0.9 1.7 0.00 0.00 0.00 89 1014.7
20260831002739 82 108 0.0 1.7 0.00 0.00 0.00 89 1015.0
20260831001738 82 40 0.9 2.6 0.00 0.00 0.00 88 1014.7
20260831000737 82 79 0.9 3.5 0.00 0.00 0.00 88 1014.7
20260830235705 83 66 0.9 3.5 0.00 0.00 0.00 88 1014.4
20260830234704 83 51 0.9 3.5 0.00 0.00 0.00 88 1014.4
20260830233703 83 14 0.9 2.6 0.00 0.00 0.00 88 1014.4
20260830232703 83 51 0.9 3.5 0.00 0.00 0.00 87 1014.4
20260830231631 83 64 1.7 3.5 0.00 0.00 0.00 86 1014.4
20260830230630 84 111 0.9 2.6 0.00 0.00 0.00 85 1014.4
20260830225629 84 24 0.9 2.6 0.00 0.00 0.00 85 1014.4
20260830224629 84 100 1.7 2.6 0.00 0.00 0.00 84 1014.4
20260830223557 84 42 1.7 3.5 0.00 0.00 0.00 84 1014.4
20260830222556 85 19 0.9 5.2 0.00 0.00 0.00 84 1014.4
20260830221555 85 26 0.9 6.1 0.00 0.00 0.00 83 1014.0
20260830220523 85 75 1.7 4.3 0.00 0.00 0.00 83 1014.0
20260830215522 85 93 1.7 5.2 0.00 0.00 0.00 83 1014.0
20260830214348 85 47 1.7 2.6 0.00 0.00 0.00 82 1014.0
20260830213347 85 24 0.9 3.5 0.00 0.00 0.00 82 1013.7
20260830212346 85 121 0.9 4.3 0.00 0.00 0.00 82 1013.7
20260830211345 85 86 0.9 4.3 0.00 0.00 0.00 82 1013.7
20260830210344 85 76 1.7 7.0 0.00 0.00 0.00 81 1014.0
20260830205312 85 73 0.9 7.0 0.00 0.00 0.00 81 1014.0
20260830204240 86 119 1.7 6.1 0.00 0.00 0.00 80 1014.0
20260830203239 86 116 1.7 6.1 0.00 0.00 0.00 80 1014.0
20260830202238 87 150 1.7 8.7 0.00 0.00 0.00 80 1014.0
20260830201238 87 97 1.7 8.7 0.00 0.00 0.00 77 1014.0
20260830200237 88 122 3.5 7.8 0.00 0.00 0.00 75 1014.4
20260830195236 89 118 2.6 8.7 0.00 0.00 0.00 74 1014.4
20260830194235 90 97 1.7 8.7 0.00 0.00 0.00 71 1014.4
20260830193234 92 114 1.7 7.8 0.00 0.00 0.00 68 1014.4
20260830192233 93 87 1.7 7.8 0.00 0.00 0.00 63 1014.4
20260830191233 93 39 1.7 7.8 0.00 0.00 0.00 61 1014.4
20260830190201 93 53 2.6 6.1 0.00 0.00 0.00 63 1014.4
20260830185200 93 56 1.7 7.0 0.00 0.00 0.00 62 1014.4
20260830184159 93 122 1.7 7.8 0.00 0.00 0.00 63 1014.4
20260830183158 94 60 1.7 8.7 0.00 0.00 0.00 62 1014.7
20260830182157 94 126 1.7 5.2 0.00 0.00 0.00 62 1014.7
20260830181156 93 63 2.6 6.1 0.00 0.00 0.00 64 1014.7
20260830180155 91 32 2.6 7.0 0.00 0.00 0.00 67 1014.7
20260830175154 92 80 2.6 5.2 0.00 0.00 0.00 66 1015.1
20260830174123 91 82 1.7 7.0 0.00 0.00 0.00 68 1015.1
20260830173122 89 28 1.7 7.8 0.00 0.00 0.00 72 1015.4
20260830172121 91 0 2.6 8.7 0.00 0.00 0.00 71 1015.4
20260830171050 91 15 1.7 5.2 0.00 0.00 0.00 70 1015.4
20260830170049 91 6 1.7 4.3 0.00 0.00 0.00 69 1015.7
20260830165048 92 77 0.0 5.2 0.00 0.00 0.00 67 1015.7
20260830164047 92 134 0.9 3.5 0.00 0.00 0.00 65 1016.1
20260830163046 91 18 0.9 5.2 0.00 0.00 0.00 70 1016.1
20260830162045 91 59 1.7 4.3 0.00 0.00 0.00 70 1015.7
20260830161045 90 25 0.9 5.2 0.00 0.00 0.00 72 1015.7
20260830160044 89 127 1.7 6.1 0.00 0.00 0.00 72 1015.7
20260830155043 88 179 0.9 3.5 0.00 0.00 0.00 74 1016.1
20260830154042 88 74 0.9 3.5 0.00 0.00 0.00 76 1016.1
20260830153041 89 51 0.9 3.5 0.00 0.00 0.00 75 1016.4
20260830152040 89 86 0.9 4.3 0.00 0.00 0.00 74 1016.4
20260830151008 89 82 1.7 5.2 0.00 0.00 0.00 75 1016.4
20260830145936 89 24 1.7 4.3 0.00 0.00 0.00 75 1016.4